Airfield :
LOGIN :

Register | Disclaimer

   EN    FR    IT 

 










Legend :    VFR   Marginal VFR   IFR   Intensive IFR   Very Intensive IFR
Visi :
Ceiling :
>= 8 km
>= 3000ft
5 to 8 km
1000 to 3000 ft
1500m to 5 km
500 to 1000 ft
800 to 1500m
200 to 500 ft
< 800m
< 200 ft
Symbols :   Thunderstorms  Fog  Heavy snow  Heavy precipitations  Wind > 20 kt
SIGMETs :     Misc.  Thunderstorms  Icing  Turbulence  Mountain Waves  Volcanic Ashes







- Airport Elevation : 48 ft
- IATA code : PSR


LIBP - Abruzzo Pescara

CURRENT METAR :
  • 211450Z 05009KT 020V080 CAVOK 30/22 Q1009

EXPIRED METARs :
  • 211350Z 07011KT 040V100 CAVOK 31/18 Q1009
  • 211250Z 09007KT 040V150 CAVOK 33/19 Q1010

TAF TAF LIBP
Valid from the 21 at 12:00 until the 22 at 12:00 UTC


211100Z 2112/2212 06010KT 9999 FEW040
BECMG 2116/2118 VRB05KT
BECMG 2209/2212 05010KT
No reported NOTAMs for that airfield.



MET'MAP, your aeronautical weather chart ! - Copyright ORBIFLY December 2007 - Disclaimer

ORBIFLY MET'MAP TEAM :

Programming & Development : Alexandra Zaïnal
Concept & Development : Baudouin d'Aumeries
Co-Development & Prog : Marc-Olivier Méhu
Technical & hardware support : Manuel Goepfert

Contact : metmap@orbifly.com




SOURCES & CREDITS :

   NOAA